Retour au catalogue

STARLINK-4809

ActifCommunicationsVLEO
NORAD 53857·PAYLOAD·🇺🇸 United States

Lancé Sep 19, 2022 depuis Cape Canaveral Space Force Station

Loading…

Prochains Passages (prochaines 24 heures)

TLE

FraisSource: CelesTrak SupGP

Époque: Sep 14, 2026, 22:22 UTC

1 53857C 22114AR  26257.93243056 -.00021133  00000+0 -67972-3 0  2574
2 53857  53.1582 150.0710 0001020  86.8378 100.1945 15.31705613    14

Suivez STARLINK-4809 en temps réel avec AllMySat

Download on the App Store